Tracking 26911 objects as of 8-Feb-2023
HD Live streaming from Space Station
objects crossing your sky now

SL-8 DEB *

Track SL-8 DEB * now!
10-day predictions


NORAD ID: 14803
Int'l Code: 1978-019D
Perigee: 528.9 km
Apogee: 531.8 km
Inclination: 74.0 °
Period: 95.1 minutes
Semi major axis: 6901 km
RCS: 0.0099 m2 (small)
Launch date: February 17, 1978
Source: Commonwealth of Independent States (former USSR) (CIS)
Launch site: PLESETSK MISSILE AND SPACE COMPLEX (PKMTR)

Note: This is SATELLITE DEBRIS
Your satellite tracking list
Your tracking list is empty




NASA's NSSDC Master Catalog

Two Line Element Set (TLE):
1 14803U 78019D   23038.82910519  .00040271  00000-0  21910-2 0  9991
2 14803  74.0157 191.8963 0002152 301.5457 178.8603 15.14264182247925
Source of the keplerian elements: AFSPC